Hauptseite
METAR-TAF:

METAR-TAF

Flughäfen :

Le Luc, Frankreich

Flughafen Le Luc-Le Cannet

Breite: 43-23N, Länge: 006-23E, Höhe: 80 m

Beobachtung

Neuester Wetterbericht von vor 42 Minuten, um 19:00 UTC
Wind 14 kt aus West, variierte zwischen Südwest und Nordwest
Temperatur 15°C
Luftfeuchtigkeit 63%
Luftdruck 1014 hPa
Sichtweite 10 km oder mehr

METAR: LFMC 221900Z AUTO 28014KT 230V310 9999 ////// 15/08 Q1014

Zeit: 20:42 (19:42 UTC)


TAF: fehlend

Wetterbeobachtungen und Prognosen von mehr als 4000 Flughäfen (METAR und TAF Bericht).

Die verfügbaren Stationen werden durch gelbe und rote Markierungen auf der Karte dargestellt.

Führen Sie die Maus auf sie, um den Namen der Station zu sehen.

Darauf klicken, um die Beobachtung von Wetterbeobachtungen und Prognosen zu sehen.

Um die Karte zu ändern : klicken Sie auf den grünen Tasten mit einem schwarzen Kreuz Zum Vergrößern, auf den grünen Button mit einem Gedankenstrich zu verkleinern, oder auf die grünen Pfeile für benachbarte Karten.


METAR-TAF: